Home > Weather > Cairo > Past weeks

Flag for Egypt Weather for the Past 2 Weeks in Cairo, Egypt

Now
90 °F

Sunny.


Feels Like: 88 °F
Forecast: 65 / 96 °F
Wind: 16 mph from Northwest

Location: Cairo Airport

Current Time: May 1, 2016 at 5:45:32 PM

Latest Report: May 1, 2016 at 5:00 PM


Visibility: 10 mi

Pressure: 29.80 "Hg

Humidity: 33%

Dew Point: 57 °F

Location of CairoLocation

Historic Weather in Cairo — Graph

°F

Cairo Temperature Yesterday

Maximum temperature yesterday: 97 °F (at 2:30 PM)
Minimum temperature yesterday: 66 °F (at 3:30 AM)
Average temperature yesterday: 83 °F

High & Low Weather Summary for the Past Weeks

 TemperatureHumidityPressure
High108 °F (Apr 26, 3:00 PM)100% (Apr 19, 5:00 AM)30.09 "Hg (Apr 19, 5:00 AM)
Low64 °F (Apr 18, 4:30 AM)7% (Apr 24, 2:00 PM)29.56 "Hg (Apr 24, 6:30 PM)
Average81 °F41%29.91 "Hg
* Reported Apr 16 4:00 PM — May 1 4:30 PM, Cairo, Weather by CustomWeather, © 2016

Note: Actual official high and low records may vary slightly from our data, if they occured in-between our weather recording intervals... More about our weather records

Advertising

Cairo Weather History for the Previous 24 Hours

Scroll right to see more
 ConditionsComfort  
Time TempWeatherWind HumidityBarometerVisibility
4:30 PM
Sun, May 1
91 °FSunny.14 mph30%29.80 "Hg10 mi
4:00 PM91 °FSunny.14 mph30%29.80 "Hg10 mi
3:30 PM91 °FSunny.14 mph26%29.80 "Hg10 mi
3:00 PM93 °FSunny.13 mph26%29.80 "Hg10 mi
2:30 PM91 °FSunny.14 mph30%29.80 "Hg10 mi
2:00 PM91 °FSunny.13 mph30%29.80 "Hg10 mi
1:30 PM91 °FSunny.14 mph28%29.80 "Hg10 mi
1:00 PM91 °FSunny.14 mph28%29.83 "Hg10 mi
12:00 PM88 °FSunny.10 mph33%29.83 "Hg10 mi
11:30 AM84 °FSunny.10 mph40%29.83 "Hg10 mi
11:00 AM84 °FClear.10 mph40%29.83 "Hg4 mi
10:30 AM81 °FClear.9 mph48%29.83 "Hg4 mi
10:00 AM81 °FClear.9 mph48%29.83 "Hg4 mi
9:00 AM77 °FHaze.9 mph57%29.83 "Hg2 mi
8:30 AM75 °FHaze.8 mph69%29.83 "Hg2 mi
8:00 AM75 °FHaze.8 mph69%29.83 "Hg2 mi
7:30 AM72 °FHaze.9 mph78%29.83 "Hg2 mi
6:30 AM73 °FHaze.9 mph69%29.80 "Hg2 mi
6:00 AM73 °FHaze.9 mph69%29.80 "Hg2 mi
5:00 AM75 °FHaze.6 mph50%29.77 "Hg2 mi
4:30 AM75 °FHaze.5 mph50%29.77 "Hg2 mi
4:00 AM75 °FHaze.9 mph47%29.77 "Hg2 mi
3:30 AM77 °FHaze.9 mph42%29.80 "Hg2 mi
3:00 AM79 °FHaze.9 mph37%29.77 "Hg2 mi
2:30 AM79 °FHaze.7 mph32%29.77 "Hg2 mi
2:00 AM81 °FHaze.9 mph30%29.80 "Hg2 mi
1:30 AM82 °FHaze.10 mph26%29.77 "Hg2 mi
1:00 AM86 °FHaze.10 mph19%29.77 "Hg2 mi
12:30 AM88 °FClear.10 mph15%29.77 "Hg4 mi
12:00 AM88 °FClear.10 mph15%29.77 "Hg4 mi
11:30 PM
Sat, Apr 30
88 °FClear.7 mph16%29.80 "Hg10 mi
11:00 PM88 °FClear.9 mph15%29.80 "Hg10 mi
10:30 PM88 °FClear.12 mph13%29.80 "Hg10 mi
10:00 PM86 °FClear.12 mph12%29.83 "Hg10 mi
9:30 PM86 °FClear.No wind13%29.83 "Hg10 mi
9:00 PM90 °FClear.No wind10%29.83 "Hg10 mi
8:30 PM91 °FClear.3 mph10%29.83 "Hg10 mi
8:00 PM91 °FClear.5 mph11%29.80 "Hg10 mi
7:30 PM93 °FClear.5 mph10%29.80 "Hg10 mi
7:00 PM95 °FClear.6 mph10%29.80 "Hg10 mi
6:30 PM95 °FSunny.6 mph9%29.80 "Hg10 mi
6:00 PM97 °FSunny.5 mph9%29.80 "Hg10 mi
5:30 PM97 °FSunny.1 mph8%29.80 "Hg10 mi
5:00 PM97 °FSunny.5 mph9%29.80 "Hg10 mi
Weather by CustomWeather, © 2016

See weather overviewHow to use our weather pages